To NAV CANADA Home Page Login to a new session Search on AWWS site Feedback and Comments Disclaimer Vers la page française équivalente Tips FAQ What's new on the site To the Forecasts and Observations / NOTAM section To "File a Flight Plan" website Publications and other links Update of the User's profile FIC Telephone Numbers My Weather Data Folder Route Weather Data Regional Weather Data Local Weather Data To the Forecasts and Observations / NOTAM section
Request Generated 05/31/2016 at 21:44:06 UTC . Weather information available at that time is displayed.

METAR/TAF

AUPALUK/QC    

METAR CYLA 312100Z 01008KT 10SM -SN OVC036 00/M05 A3016 RMK SC8 LAST
STFD OBS/NXT 011200 UTC SLP217=
METAR CYLA 312000Z 01009KT 15SM -SN SCT048 OVC055 01/M05 A3014 RMK
SC4SC4 SLP212=
METAR CYLA 311900Z 02010G15KT 15SM FEW017 BKN052 01/M05 A3013 RMK
CF1SC6 SLP208=

CYLA - No TAF is issued for this station

Your time UTC time
Weather data provided by Environment Canada and NAV CANADA